Weather History for Versailles, OH

Change the Weather History Date:

Monday, December 9, 2013

  Actual Average (KDAY) Record (KDAY)
Temperature  
Mean Temperature 26 °F 33 °F  
Max Temperature 32 °F 40 °F 65 °F (1897)
Min Temperature 21 °F 26 °F -7 °F (1917)
Degree Days  
Heating Degree Days 38 32  
Month to date heating degree days 275  
Since 1 July heating degree days 1386  
Cooling Degree Days 0 0  
Month to date cooling degree days 0  
Year to date cooling degree days 891  
Moisture  
Dew Point 24 °F    
Average Humidity 87    
Maximum Humidity 100    
Minimum Humidity 68    
Precipitation  
Precipitation 0.00 in 0.11 in 1.37 in (1923)
Month to date precipitation 0.94  
Year to date precipitation 38.87  
Snow  
Snow 0.00 in 0.10 in 1.80 in (1956)
Month to date snowfall 0.9  
Since 1 July snowfall 1.9  
Snow Depth -    
Sea Level Pressure  
Sea Level Pressure 30.08 in    
Wind  
Wind Speed 12 mph (WSW)    
Max Wind Speed 20 mph    
Max Gust Speed 25 mph    
Visibility 9 miles    
Events      
T = Trace of Precipitation, MM = Missing Value Source: NWS Daily Summary

Daily Weather History Graph

Daily Weather History Graph

Search for Another Location

Airport:

Trip Planner

Search our weather history database for the weather conditions in past years. The results will help you decide how hot, cold, wet, or windy it might be!

Date:

Astronomy

Dec. 09, 2013 Rise Set
Actual Time 7:49 AM EST 5:12 PM EST
Civil Twilight 7:18 AM EST 5:42 PM EST
Nautical Twilight 6:44 AM EST 6:16 PM EST
Astronomical Twilight 6:11 AM EST 6:49 PM EST
Moon 12:41 PM EST (12/9) 12:01 AM EST (12/9)
Length of Visible Light 10h 24m
Length of Day
9h 23m
Waxing Crescent, 51% of the Moon is Illuminated
Dec 9
Waxing Crescent
Dec 17
Full
Dec 25
Last Quarter
Jan 1
New
Jan 7
First Quarter

Hourly Weather History & Observations

Time (EST) Temp. Windchill Dew Point Humidity Pressure Visibility Wind Dir Wind Speed Gust Speed Precip Events Conditions
12:15 AM 30.2 °F 22.6 °F 30.2 °F 100% 29.97 in 3.0 mi SSW 8.1 mph - N/A   Overcast
12:35 AM 30.2 °F 21.9 °F 30.2 °F 100% 29.96 in 3.0 mi SSW 9.2 mph - N/A   Overcast
12:55 AM 30.2 °F 21.9 °F 30.2 °F 100% 29.95 in 3.0 mi SW 9.2 mph - N/A   Overcast
1:15 AM 32.0 °F 23.6 °F 32.0 °F 100% 29.94 in 7.0 mi SW 10.4 mph - N/A   Overcast
1:35 AM 32.0 °F 23.6 °F 32.0 °F 100% 29.94 in 10.0 mi SW 10.4 mph - N/A   Overcast
1:55 AM 32.0 °F 23.6 °F 32.0 °F 100% 29.94 in 10.0 mi SW 10.4 mph - N/A   Overcast
2:15 AM 32.0 °F 23.6 °F 32.0 °F 100% 29.94 in 10.0 mi SW 10.4 mph - N/A   Overcast
2:35 AM 30.2 °F 21.9 °F 30.2 °F 100% 29.94 in 10.0 mi WSW 9.2 mph - N/A   Overcast
2:55 AM 30.2 °F 21.9 °F 30.2 °F 100% 29.95 in 10.0 mi WSW 9.2 mph - N/A   Overcast
3:15 AM 32.0 °F 24.2 °F 32.0 °F 100% 29.95 in 10.0 mi SW 9.2 mph - N/A   Overcast
3:35 AM 32.0 °F 22.5 °F 32.0 °F 100% 29.96 in 10.0 mi WSW 12.7 mph - N/A   Overcast
3:55 AM 32.0 °F 22.5 °F 30.2 °F 93% 29.96 in 5.0 mi WSW 12.7 mph - N/A   Overcast
4:15 AM 30.2 °F 19.8 °F 30.2 °F 100% 29.96 in 4.0 mi WSW 13.8 mph - N/A   Overcast
4:35 AM 30.2 °F 19.8 °F 30.2 °F 100% 29.96 in 4.0 mi West 13.8 mph 20.7 mph N/A   Overcast
4:55 AM 30.2 °F 20.8 °F 30.2 °F 100% 29.97 in 5.0 mi WSW 11.5 mph 17.3 mph N/A   Overcast
5:15 AM 30.2 °F 20.2 °F 30.2 °F 100% 29.97 in 10.0 mi WSW 12.7 mph - N/A   Overcast
5:35 AM 30.2 °F 19.8 °F 30.2 °F 100% 29.97 in 7.0 mi WSW 13.8 mph 18.4 mph N/A   Overcast
5:55 AM 30.2 °F 19.8 °F 30.2 °F 100% 29.98 in 10.0 mi WSW 13.8 mph - N/A   Overcast
6:15 AM 30.2 °F 18.9 °F 28.4 °F 93% 29.99 in 10.0 mi West 16.1 mph 21.9 mph N/A   Overcast
6:35 AM 30.2 °F 18.1 °F 28.4 °F 93% 30.01 in 10.0 mi West 18.4 mph 25.3 mph N/A   Overcast
6:55 AM 30.2 °F 18.1 °F 28.4 °F 93% 30.01 in 10.0 mi West 18.4 mph 24.2 mph N/A   Overcast
7:15 AM 28.4 °F 16.2 °F 26.6 °F 93% 30.02 in 10.0 mi West 17.3 mph - N/A   Overcast
7:35 AM 28.4 °F 15.4 °F 26.6 °F 93% 30.03 in 10.0 mi West 19.6 mph 25.3 mph N/A   Overcast
7:55 AM 28.4 °F 16.6 °F 26.6 °F 93% 30.03 in 10.0 mi West 16.1 mph 20.7 mph N/A   Overcast
8:15 AM 28.4 °F 16.6 °F 26.6 °F 93% 30.05 in 10.0 mi West 16.1 mph - N/A   Overcast
8:35 AM 28.4 °F 17.5 °F 26.6 °F 93% 30.05 in 10.0 mi WSW 13.8 mph 20.7 mph N/A   Overcast
8:55 AM 28.4 °F 16.2 °F 26.6 °F 93% 30.06 in 10.0 mi West 17.3 mph - N/A   Overcast
9:15 AM 28.4 °F 17.5 °F 26.6 °F 93% 30.07 in 10.0 mi West 13.8 mph 17.3 mph N/A   Overcast
9:35 AM 28.4 °F 16.6 °F 24.8 °F 86% 30.09 in 10.0 mi West 16.1 mph 20.7 mph N/A   Overcast
9:55 AM 26.6 °F 14.7 °F 24.8 °F 93% 30.10 in 7.0 mi West 15.0 mph - N/A   Overcast
10:15 AM 26.6 °F 14.7 °F 24.8 °F 93% 30.11 in 7.0 mi West 15.0 mph 24.2 mph N/A   Overcast
10:35 AM 26.6 °F 15.2 °F 24.8 °F 93% 30.12 in 5.0 mi West 13.8 mph - N/A   Overcast
10:55 AM 28.4 °F 16.2 °F 24.8 °F 86% 30.12 in 7.0 mi West 17.3 mph 23.0 mph N/A   Overcast
11:15 AM 28.4 °F 18.5 °F 24.8 °F 86% 30.11 in 7.0 mi West 11.5 mph - N/A   Overcast
11:35 AM 28.4 °F 19.1 °F 24.8 °F 86% 30.11 in 7.0 mi West 10.4 mph - N/A   Overcast
11:55 AM 28.4 °F 19.1 °F 24.8 °F 86% 30.09 in 7.0 mi WSW 10.4 mph - N/A   Overcast
12:15 PM 28.4 °F 18.5 °F 23.0 °F 80% 30.08 in 10.0 mi WSW 11.5 mph - N/A   Overcast
12:35 PM 28.4 °F 18.5 °F 23.0 °F 80% 30.08 in 10.0 mi WSW 11.5 mph 19.6 mph N/A   Overcast
12:55 PM 28.4 °F 17.5 °F 23.0 °F 80% 30.10 in 10.0 mi WSW 13.8 mph 19.6 mph N/A   Overcast
1:15 PM 28.4 °F 15.8 °F 23.0 °F 80% 30.11 in 10.0 mi West 18.4 mph 23.0 mph N/A   Overcast
1:35 PM 28.4 °F 16.6 °F 23.0 °F 80% 30.12 in 10.0 mi West 16.1 mph - N/A   Overcast
1:55 PM 28.4 °F 15.4 °F 23.0 °F 80% 30.12 in 10.0 mi West 19.6 mph - N/A   Overcast
2:15 PM 28.4 °F 16.2 °F 23.0 °F 80% 30.12 in 10.0 mi WSW 17.3 mph 21.9 mph N/A   Overcast
2:35 PM 26.6 °F 13.4 °F 21.2 °F 80% 30.13 in 10.0 mi West 18.4 mph 21.9 mph N/A   Overcast
2:55 PM 26.6 °F 14.7 °F 21.2 °F 80% 30.13 in 10.0 mi West 15.0 mph 19.6 mph N/A   Overcast
3:15 PM 26.6 °F 14.3 °F 23.0 °F 86% 30.13 in 10.0 mi West 16.1 mph 20.7 mph N/A   Overcast
3:35 PM 26.6 °F 13.8 °F 21.2 °F 80% 30.14 in 10.0 mi West 17.3 mph 20.7 mph N/A   Mostly Cloudy
3:55 PM 26.6 °F 13.4 °F 19.4 °F 74% 30.15 in 10.0 mi West 18.4 mph 23.0 mph N/A   Scattered Clouds
4:15 PM 26.6 °F 15.2 °F 19.4 °F 74% 30.15 in 10.0 mi West 13.8 mph - N/A   Mostly Cloudy
4:35 PM 26.6 °F 16.2 °F 19.4 °F 74% 30.15 in 10.0 mi West 11.5 mph - N/A   Overcast
4:55 PM 26.6 °F 17.5 °F 19.4 °F 74% 30.16 in 10.0 mi West 9.2 mph - N/A   Mostly Cloudy
5:15 PM 24.8 °F 14.6 °F 19.4 °F 80% 30.17 in 10.0 mi West 10.4 mph - N/A   Mostly Cloudy
5:35 PM 24.8 °F 14.6 °F 19.4 °F 80% 30.17 in 10.0 mi West 10.4 mph - N/A   Scattered Clouds
5:55 PM 24.8 °F 16.1 °F 19.4 °F 80% 30.17 in 10.0 mi West 8.1 mph - N/A   Scattered Clouds
6:15 PM 23.0 °F 12.4 °F 19.4 °F 86% 30.18 in 10.0 mi West 10.4 mph - N/A   Scattered Clouds
6:35 PM 23.0 °F 12.4 °F 19.4 °F 86% 30.18 in 10.0 mi WSW 10.4 mph - N/A   Scattered Clouds
6:55 PM 23.0 °F 13.9 °F 19.4 °F 86% 30.18 in 10.0 mi WSW 8.1 mph - N/A   Mostly Cloudy
7:15 PM 23.0 °F 12.4 °F 19.4 °F 86% 30.20 in 10.0 mi West 10.4 mph 16.1 mph N/A   Overcast
7:35 PM 23.0 °F 13.1 °F 19.4 °F 86% 30.19 in 10.0 mi WSW 9.2 mph - N/A   Mostly Cloudy
7:55 PM 23.0 °F 12.4 °F 17.6 °F 80% 30.19 in 10.0 mi West 10.4 mph - N/A   Scattered Clouds
8:15 PM 23.0 °F 12.4 °F 17.6 °F 80% 30.18 in 10.0 mi West 10.4 mph - N/A   Scattered Clouds
8:35 PM 23.0 °F 12.4 °F 17.6 °F 80% 30.17 in 10.0 mi West 10.4 mph - N/A   Scattered Clouds
8:55 PM 23.0 °F 13.1 °F 17.6 °F 80% 30.18 in 10.0 mi West 9.2 mph - N/A   Scattered Clouds
9:15 PM 23.0 °F 13.1 °F 17.6 °F 80% 30.16 in 10.0 mi WNW 9.2 mph - N/A   Scattered Clouds
9:35 PM 23.0 °F 11.7 °F 14.0 °F 68% 30.16 in 10.0 mi WNW 11.5 mph - N/A   Mostly Cloudy
9:55 PM 21.2 °F 10.1 °F 14.0 °F 74% 30.15 in 10.0 mi West 10.4 mph - N/A   Overcast
10:15 PM 21.2 °F 10.9 °F 14.0 °F 74% 30.16 in 10.0 mi WNW 9.2 mph - N/A   Overcast
10:35 PM 21.2 °F 9.5 °F 14.0 °F 74% 30.17 in 10.0 mi West 11.5 mph - N/A   Overcast
10:55 PM 21.2 °F 10.1 °F 14.0 °F 74% 30.17 in 10.0 mi West 10.4 mph - N/A   Overcast
11:15 PM 21.2 °F 10.1 °F 14.0 °F 74% 30.17 in 10.0 mi West 10.4 mph - N/A   Overcast
11:35 PM 21.2 °F 9.5 °F 14.0 °F 74% 30.18 in 10.0 mi West 11.5 mph - N/A   Overcast
11:55 PM 21.2 °F 10.1 °F 14.0 °F 74% 30.18 in 10.0 mi West 10.4 mph - N/A   Overcast